GW7325 Weather Reports


time (UTC)temp
C
wind
direction
speed
KPH
gust
KPH
rain 1hr
cm
rain 24hr
cm
rain mn
cm
humidity
%
barometer
mb
20260508004024 12 265 1.6 6.4 0.00 0.05 0.05 41 1007.1
20260508003503 12 263 3.2 4.8 0.00 0.05 0.05 40 1006.7
20260508003003 12 270 3.2 8.0 0.00 0.05 0.05 39 1006.7
20260508002524 13 275 3.2 8.0 0.00 0.05 0.05 43 1006.7
20260508002003 13 274 3.2 6.4 0.00 0.05 0.05 41 1006.7
20260508001504 13 277 1.6 6.4 0.00 0.05 0.05 42 1006.7
20260508001003 13 284 3.2 8.0 0.00 0.05 0.05 41 1006.7
20260508000504 13 284 3.2 14.5 0.00 0.05 0.05 39 1006.7
20260508000003 13 290 6.4 16.1 0.00 0.05 0.05 39 1006.4
20260507235503 13 293 6.4 16.1 0.00 0.05 0.05 37 1006.4
20260507235003 13 288 6.4 11.3 0.00 0.05 0.05 40 1006.4
20260507234503 14 284 6.4 16.1 0.00 0.05 0.05 41 1006.4
20260507234003 14 284 8.0 24.1 0.00 0.05 0.05 38 1006.4
20260507233503 14 284 8.0 24.1 0.00 0.05 0.05 40 1006.4
20260507233003 14 284 6.4 11.3 0.00 0.08 0.05 37 1006.4
20260507232503 15 284 6.4 12.9 0.00 0.13 0.05 36 1006.4
20260507232024 15 287 8.0 16.1 0.00 0.18 0.05 35 1006.0
20260507231503 15 284 8.0 16.1 0.00 0.18 0.05 37 1006.0
20260507231024 15 285 9.7 17.7 0.00 0.20 0.05 39 1006.0
20260507230503 15 285 9.7 17.7 0.00 0.23 0.05 36 1006.0
20260507230003 15 281 9.7 20.9 0.00 0.25 0.05 34 1006.0
20260507225524 15 286 9.7 20.9 0.00 0.28 0.05 36 1006.0
20260507225004 15 290 8.0 20.9 0.00 0.33 0.05 35 1006.0
20260507224504 15 282 8.0 12.9 0.00 0.36 0.05 35 1005.7
20260507224003 15 275 9.7 20.9 0.00 0.38 0.05 36 1006.0
20260507223503 15 276 9.7 27.4 0.00 0.41 0.05 34 1005.7
20260507223003 16 271 8.0 27.4 0.00 0.41 0.05 34 1005.7
20260507222503 16 262 8.0 20.9 0.00 0.43 0.05 34 1005.4
20260507222003 16 269 8.0 24.1 0.00 0.43 0.05 34 1005.7
20260507221503 16 289 11.3 27.4 0.00 0.46 0.05 34 1005.7
20260507221003 16 301 12.9 27.4 0.00 0.48 0.05 33 1005.4
20260507220524 16 305 14.5 33.8 0.00 0.51 0.05 36 1005.4
20260507220003 15 295 14.5 33.8 0.00 0.51 0.05 39 1005.4
20260507215503 16 272 9.7 25.7 0.00 0.51 0.05 34 1005.4
20260507215024 16 278 9.7 25.7 0.00 0.51 0.05 33 1005.4
20260507214524 16 288 12.9 29.0 0.00 0.51 0.05 34 1005.4
20260507214003 15 294 12.9 29.0 0.00 0.51 0.05 35 1005.4
20260507213524 15 297 16.1 37.0 0.00 0.51 0.05 35 1005.4
20260507213003 15 296 17.7 37.0 0.00 0.53 0.05 35 1005.0
20260507212503 16 275 9.7 30.6 0.00 0.53 0.05 37 1005.0
20260507212003 16 266 8.0 24.1 0.00 0.53 0.05 34 1005.4
20260507211503 16 294 12.9 27.4 0.00 0.56 0.05 36 1005.0
20260507211003 16 312 17.7 32.2 0.00 0.56 0.05 35 1005.4
20260507210503 15 313 17.7 32.2 0.00 0.56 0.05 34 1005.4
20260507210005 16 287 8.0 12.9 0.00 0.58 0.05 37 1005.4
20260507205003 16 276 11.3 24.1 0.00 0.66 0.05 35 1005.4
20260507204503 16 289 16.1 30.6 0.00 0.66 0.05 33 1005.4
20260507204024 16 307 16.1 30.6 0.00 0.69 0.05 33 1005.4
20260507203503 16 301 12.9 22.5 0.00 0.71 0.05 39 1005.0
20260507203024 16 282 12.9 22.5 0.00 0.74 0.05 33 1005.0
20260507202524 16 271 11.3 24.1 0.00 0.76 0.05 34 1005.0
20260507202003 16 252 8.0 24.1 0.00 0.81 0.05 33 1005.0
20260507201503 17 281 9.7 24.1 0.00 0.84 0.05 34 1005.0
20260507201024 16 292 14.5 29.0 0.00 0.84 0.05 35 1005.0
20260507200503 16 288 9.7 29.0 0.00 0.86 0.05 36 1005.4
20260507200024 16 270 6.4 24.1 0.00 0.86 0.05 34 1005.0
20260507195503 16 278 9.7 24.1 0.00 0.89 0.05 33 1005.4
20260507195003 16 291 11.3 25.7 0.00 0.89 0.05 37 1005.4
20260507194503 15 293 14.5 27.4 0.00 0.91 0.05 35 1005.4
20260507194024 15 290 12.9 32.2 0.00 0.91 0.05 36 1005.4
20260507193503 15 295 17.7 35.4 0.00 0.94 0.05 36 1005.4
20260507193003 15 297 17.7 35.4 0.00 0.94 0.05 36 1005.7
20260507192504 16 290 9.7 27.4 0.00 0.94 0.05 36 1005.4
20260507192003 16 269 8.0 22.5 0.00 0.94 0.05 40 1005.7
20260507191524 16 277 11.3 25.7 0.00 0.97 0.05 38 1005.7
20260507191003 16 285 11.3 25.7 0.00 0.97 0.05 37 1005.7
20260507190503 16 306 14.5 30.6 0.00 0.97 0.05 38 1005.7
20260507190024 15 311 16.1 30.6 0.00 0.97 0.05 42 1006.0
20260507185503 15 307 12.9 25.7 0.00 0.97 0.05 40 1005.7
20260507185003 15 293 14.5 30.6 0.00 0.97 0.05 41 1005.7
20260507184503 15 291 16.1 35.4 0.00 0.97 0.05 38 1006.0
20260507184024 15 297 12.9 35.4 0.00 0.97 0.05 41 1006.0
20260507183503 15 301 14.5 30.6 0.00 0.97 0.05 37 1006.0
20260507183024 15 286 14.5 30.6 0.00 0.97 0.05 40 1005.7
20260507182524 16 284 14.5 27.4 0.00 0.97 0.05 36 1006.0
20260507182003 15 291 14.5 32.2 0.00 0.97 0.05 39 1006.0
20260507181503 15 295 14.5 33.8 0.00 0.97 0.05 40 1005.7
20260507181003 15 311 14.5 38.6 0.00 0.97 0.05 40 1006.0
20260507180524 15 312 12.9 38.6 0.00 0.97 0.05 40 1006.0
20260507180024 15 297 12.9 33.8 0.00 0.97 0.05 41 1006.0
20260507175503 16 304 16.1 33.8 0.00 0.97 0.05 38 1006.0
20260507175003 15 302 14.5 33.8 0.00 0.97 0.05 43 1006.0
20260507174504 15 292 11.3 25.7 0.00 0.97 0.05 39 1006.0
20260507174003 15 281 11.3 33.8 0.00 0.97 0.05 39 1005.7
20260507173503 15 273 11.3 33.8 0.00 0.97 0.05 38 1006.0
20260507173003 16 269 9.7 30.6 0.00 0.97 0.05 39 1006.0
20260507172524 15 265 8.0 25.7 0.00 0.97 0.05 39 1006.0
20260507172003 15 259 9.7 27.4 0.00 0.97 0.05 40 1006.4
20260507171503 15 241 9.7 27.4 0.00 0.97 0.05 42 1006.0
20260507171003 16 259 12.9 30.6 0.00 0.97 0.05 39 1006.0
20260507170503 15 279 14.5 30.6 0.00 0.97 0.05 42 1006.4
20260507170003 15 267 11.3 30.6 0.00 0.97 0.05 42 1006.4
20260507165504 16 267 9.7 30.6 0.00 0.97 0.05 43 1006.4
20260507165003 15 275 9.7 30.6 0.00 0.97 0.05 45 1006.4
20260507164503 15 281 9.7 30.6 0.00 0.97 0.05 47 1006.4
20260507164003 14 293 9.7 22.5 0.00 0.97 0.05 52 1006.7
20260507163524 14 281 9.7 22.5 0.00 0.97 0.05 52 1006.7
20260507163003 14 273 9.7 20.9 0.00 0.97 0.05 54 1006.7
20260507162524 14 274 6.4 20.9 0.00 0.97 0.05 58 1006.7
20260507162003 15 274 6.4 20.9 0.00 0.97 0.05 53 1006.7
20260507161503 14 278 9.7 20.9 0.00 0.97 0.05 54 1006.7
20260507161024 13 268 8.0 24.1 0.00 0.97 0.05 59 1006.7
20260507160503 14 260 6.4 24.1 0.00 0.97 0.05 57 1006.7
20260507160003 14 269 8.0 24.1 0.00 0.97 0.05 58 1006.7
20260507155503 14 295 12.9 29.0 0.00 0.97 0.05 55 1006.7
20260507155003 13 318 11.3 29.0 0.00 0.97 0.05 59 1006.7
20260507154504 14 281 8.0 20.9 0.00 0.97 0.05 59 1007.1
20260507154003 14 280 12.9 27.4 0.00 0.97 0.05 56 1007.1
20260507153504 13 299 14.5 29.0 0.00 0.97 0.05 57 1007.1
20260507153024 13 297 12.9 29.0 0.00 0.97 0.05 60 1007.1
20260507152503 13 286 11.3 22.5 0.00 0.97 0.05 57 1007.1
20260507152003 13 286 9.7 22.5 0.00 0.97 0.05 56 1007.4
20260507151524 13 292 8.0 22.5 0.00 0.97 0.05 58 1007.1
20260507151024 13 302 6.4 22.5 0.00 0.97 0.05 53 1007.4
20260507150503 14 286 4.8 16.1 0.00 0.97 0.05 55 1007.4
20260507150004 14 282 9.7 29.0 0.00 0.97 0.05 54 1007.4
20260507145503 13 292 11.3 30.6 0.00 0.97 0.05 54 1007.7
20260507145004 13 296 9.7 30.6 0.00 0.97 0.05 57 1007.7
20260507144503 13 293 9.7 30.6 0.00 0.97 0.05 56 1007.7
20260507144003 13 300 8.0 24.1 0.00 0.97 0.05 55 1007.7
20260507143503 13 303 8.0 25.7 0.00 0.97 0.05 56 1007.4
20260507143003 13 286 11.3 25.7 0.00 0.97 0.05 54 1007.4
20260507142503 13 300 14.5 29.0 0.00 0.97 0.05 55 1007.1
20260507142003 12 322 14.5 29.0 0.00 0.97 0.05 61 1007.4
20260507141524 13 330 12.9 22.5 0.00 0.97 0.05 59 1007.4
20260507141003 12 321 12.9 27.4 0.00 0.97 0.05 61 1007.4
20260507140503 12 313 9.7 27.4 0.00 0.97 0.05 59 1007.4
20260507140003 12 309 8.0 20.9 0.00 0.97 0.05 61 1007.4
20260507135504 12 313 11.3 22.5 0.00 0.97 0.05 61 1007.4
20260507135004 12 320 9.7 22.5 0.00 0.97 0.05 60 1007.4
20260507134503 12 303 8.0 20.9 0.00 0.97 0.05 61 1007.4
20260507134003 12 296 8.0 20.9 0.00 0.97 0.05 62 1007.4
20260507133503 12 305 9.7 17.7 0.00 0.97 0.05 62 1007.7
20260507133003 12 296 9.7 19.3 0.00 0.97 0.05 63 1007.7
20260507132504 12 307 11.3 19.3 0.00 0.97 0.05 65 1007.7
20260507132003 11 315 12.9 22.5 0.00 0.97 0.05 67 1008.1
20260507131503 11 301 12.9 22.5 0.00 0.97 0.05 67 1007.7
20260507131003 11 295 12.9 22.5 0.00 0.97 0.05 69 1008.1
20260507130524 11 307 11.3 20.9 0.00 0.97 0.05 69 1008.1
20260507130003 11 328 12.9 22.5 0.00 0.97 0.05 71 1008.1
20260507125503 11 319 14.5 22.5 0.00 0.97 0.05 74 1008.1
20260507125003 11 309 16.1 27.4 0.00 0.97 0.05 71 1008.1
20260507124503 10 307 14.5 27.4 0.00 0.97 0.05 71 1008.1
20260507124003 10 303 14.5 29.0 0.00 0.97 0.05 71 1008.1
20260507123524 10 309 16.1 29.0 0.00 0.97 0.05 70 1008.1
20260507123003 10 316 16.1 29.0 0.00 0.97 0.05 72 1008.1
20260507122503 10 311 16.1 25.7 0.00 0.97 0.05 74 1008.1
20260507122004 10 298 12.9 25.7 0.00 0.97 0.05 73 1008.1
20260507121503 10 286 9.7 19.3 0.00 0.97 0.05 75 1008.4
20260507121003 10 302 11.3 20.9 0.00 0.97 0.05 76 1008.4
20260507120503 10 311 11.3 20.9 0.00 0.97 0.05 76 1008.4
20260507120024 10 311 8.0 19.3 0.00 0.97 0.05 77 1008.1
20260507115503 10 308 6.4 11.3 0.00 0.97 0.05 79 1008.1
20260507115003 10 310 6.4 14.5 0.00 0.97 0.05 80 1008.1
20260507114503 9 302 6.4 14.5 0.00 0.97 0.05 80 1008.4
20260507114004 9 296 6.4 12.9 0.00 0.97 0.05 81 1008.1
20260507113503 9 310 8.0 16.1 0.00 0.97 0.05 82 1008.1
20260507113003 9 317 11.3 17.7 0.00 0.97 0.05 82 1007.7
20260507112524 9 315 11.3 17.7 0.00 0.97 0.05 82 1008.1
20260507112003 9 317 8.0 14.5 0.00 0.97 0.05 82 1007.7
20260507111504 9 312 8.0 12.9 0.00 0.97 0.05 82 1007.7
20260507111003 9 312 6.4 14.5 0.00 0.97 0.05 84 1007.7
20260507110524 9 323 8.0 14.5 0.00 0.97 0.05 83 1008.1
20260507110005 9 323 9.7 14.5 0.00 0.97 0.05 83 1008.1
20260507105503 9 325 9.7 14.5 0.00 0.97 0.05 84 1007.7
20260507105003 8 323 11.3 17.7 0.00 0.97 0.05 83 1007.7
20260507104503 9 322 12.9 24.1 0.00 0.97 0.05 84 1007.7
20260507104003 9 323 14.5 24.1 0.00 0.97 0.05 83 1007.7
20260507103504 9 324 16.1 24.1 0.00 0.97 0.05 83 1007.4
20260507103003 9 325 14.5 24.1 0.00 0.97 0.05 84 1007.1
20260507102524 9 322 14.5 24.1 0.00 0.97 0.05 83 1007.1
20260507102003 9 318 12.9 24.1 0.00 0.97 0.05 83 1007.4
20260507101504 9 316 12.9 20.9 0.00 0.97 0.05 84 1007.7
20260507101025 9 317 14.5 24.1 0.00 0.97 0.05 83 1007.4
20260507100503 9 318 11.3 24.1 0.00 0.97 0.05 82 1007.4
20260507100003 9 307 9.7 17.7 0.00 0.97 0.05 82 1007.4
20260507095503 9 298 9.7 20.9 0.00 0.97 0.05 84 1007.7
20260507095003 9 301 9.7 20.9 0.00 0.97 0.05 84 1007.7
20260507094524 9 296 8.0 17.7 0.00 0.97 0.05 83 1007.4
20260507094003 9 292 6.4 14.5 0.00 0.97 0.05 85 1007.7
20260507093503 9 303 6.4 14.5 0.00 0.97 0.05 86 1007.4
20260507093004 9 296 6.4 11.3 0.00 0.97 0.05 86 1007.1
20260507092503 9 288 6.4 12.9 0.00 0.97 0.05 86 1007.7
20260507092003 9 283 4.8 16.1 0.00 0.97 0.05 86 1007.4
20260507091503 9 276 4.8 16.1 0.00 0.97 0.05 86 1007.4
20260507091003 9 278 4.8 12.9 0.00 0.97 0.05 87 1007.7
20260507090503 9 284 6.4 12.9 0.00 0.97 0.05 87 1007.1
20260507090024 9 290 6.4 14.5 0.03 0.97 0.05 87 1007.1
20260507085504 9 297 9.7 16.1 0.03 0.97 0.05 87 1007.1
20260507085003 9 296 9.7 17.7 0.03 0.97 0.05 86 1007.1
20260507084524 9 291 8.0 17.7 0.03 0.97 0.05 87 1007.1
20260507084003 9 295 8.0 17.7 0.03 0.97 0.05 86 1007.4
20260507083524 9 296 9.7 17.7 0.03 0.97 0.05 86 1006.7
20260507083004 9 296 8.0 14.5 0.03 0.97 0.05 85 1007.1
20260507082503 10 296 8.0 14.5 0.03 0.97 0.05 86 1006.7
20260507082003 10 299 6.4 14.5 0.03 0.97 0.05 86 1006.7
20260507081503 9 296 6.4 14.5 0.03 0.97 0.05 87 1006.7
20260507081024 9 286 8.0 19.3 0.03 0.97 0.05 87 1006.7
20260507080503 10 291 9.7 19.3 0.03 0.97 0.05 86 1007.4
20260507080004 10 294 9.7 19.3 0.00 0.94 0.03 85 1007.4
20260507075503 10 285 8.0 19.3 0.00 0.94 0.03 84 1007.1
20260507075003 10 287 9.7 16.1 0.00 0.94 0.03 83 1007.4
20260507074503 10 295 9.7 16.1 0.00 0.94 0.03 84 1007.4
20260507074003 10 297 9.7 19.3 0.00 0.94 0.03 84 1007.1
20260507073503 10 301 11.3 20.9 0.00 0.94 0.03 84 1006.7
20260507073004 10 299 11.3 22.5 0.00 0.94 0.03 85 1007.1
20260507072503 10 301 12.9 27.4 0.00 0.94 0.03 84 1006.7
20260507072003 10 300 14.5 27.4 0.00 0.94 0.03 84 1006.7
20260507071503 10 298 14.5 25.7 0.00 0.94 0.03 85 1006.7
20260507071003 10 297 12.9 25.7 0.00 0.94 0.03 83 1006.7
20260507070503 10 289 11.3 22.5 0.00 0.94 0.03 84 1006.7
20260507070008 10 287 9.7 20.9 0.00 0.94 0.03 84 1006.7
20260507065503 10 285 9.7 16.1 0.00 0.94 0.03 85 1006.7
20260507065003 10 290 8.0 16.1 0.00 0.94 0.03 86 1006.7
20260507064503 10 286 4.8 16.1 0.00 0.94 0.03 88 1006.7
20260507064003 10 277 4.8 11.3 0.00 0.94 0.03 89 1006.4
20260507063524 11 295 4.8 9.7 0.00 0.94 0.03 90 1006.4
20260507063003 11 308 6.4 9.7 0.00 0.94 0.03 90 1006.0
20260507062525 11 307 4.8 9.7 0.00 0.94 0.03 90 1006.0
20260507062003 11 290 3.2 9.7 0.00 0.94 0.03 90 1006.0
20260507061503 11 293 4.8 11.3 0.00 0.94 0.03 90 1006.4
20260507061003 11 292 6.4 12.9 0.00 0.94 0.03 89 1006.4
20260507060503 11 290 6.4 14.5 0.00 0.94 0.03 89 1006.4
20260507060025 11 293 8.0 14.5 0.00 0.94 0.03 88 1006.4
20260507055524 11 295 8.0 16.1 0.00 0.94 0.03 89 1006.4
20260507055003 11 293 8.0 19.3 0.00 0.94 0.03 89 1006.4
20260507054504 11 291 9.7 19.3 0.00 0.94 0.03 88 1006.7
20260507054003 11 292 6.4 14.5 0.00 0.94 0.03 89 1006.7
20260507053524 11 286 4.8 12.9 0.00 0.94 0.03 90 1006.4
20260507053004 11 289 4.8 11.3 0.00 0.94 0.03 90 1006.7
20260507052524 11 293 4.8 11.3 0.00 0.94 0.03 91 1007.1
20260507052003 11 284 3.2 9.7 0.00 0.94 0.03 91 1007.1
20260507051503 11 270 3.2 9.7 0.00 0.94 0.03 91 1006.7
20260507051003 11 284 3.2 8.0 0.03 0.94 0.03 91 1006.7
20260507050503 11 287 4.8 14.5 0.03 0.94 0.03 90 1006.7
20260507050003 11 284 8.0 16.1 0.03 0.94 0.03 90 1006.7
20260507045503 11 289 8.0 19.3 0.03 0.94 0.03 90 1006.7
20260507045003 11 292 8.0 19.3 0.03 0.94 0.03 91 1006.7
20260507044503 11 290 8.0 16.1 0.03 0.94 0.03 91 1006.4
20260507044003 11 293 8.0 16.1 0.03 0.94 0.03 90 1006.4
20260507043503 12 293 11.3 19.3 0.03 0.94 0.03 90 1006.4
20260507043003 12 289 9.7 19.3 0.03 0.94 0.03 90 1006.4
20260507042503 12 283 9.7 20.9 0.03 0.94 0.03 90 1006.7
20260507042003 12 283 8.0 20.9 0.03 0.94 0.03 91 1006.7
20260507041503 12 286 9.7 19.3 0.03 0.94 0.03 92 1006.7
20260507041003 12 299 11.3 24.1 0.00 0.91 0.00 91 1006.7
20260507040503 13 304 12.9 29.0 0.00 0.91 0.00 91 1006.4
20260507040004 13 301 14.5 29.0 0.00 0.91 0.00 91 1006.4
20260507035503 13 309 16.1 27.4 0.00 0.91 0.91 92 1006.0
20260507035003 13 307 14.5 27.4 0.00 0.91 0.91 93 1006.4
20260507034503 14 288 9.7 20.9 0.00 0.91 0.91 94 1006.0
20260507034003 14 273 6.4 16.1 0.00 0.91 0.91 95 1005.7
20260507033503 14 267 6.4 16.1 0.00 0.91 0.91 96 1005.7
20260507033004 15 264 6.4 17.7 0.00 0.91 0.91 97 1005.7
20260507032503 15 254 4.8 17.7 0.00 0.91 0.91 97 1005.4
20260507032004 15 222 4.8 14.5 0.00 0.91 0.91 97 1005.7
20260507031525 15 227 4.8 14.5 0.00 0.91 0.91 97 1005.4
20260507031003 15 224 4.8 11.3 0.00 0.91 0.91 97 1005.4
20260507030524 15 209 4.8 14.5 0.00 0.91 0.91 97 1005.4
20260507030003 15 202 4.8 14.5 0.00 0.91 0.91 97 1005.4
20260507025504 15 196 4.8 14.5 0.00 0.91 0.91 96 1005.0
20260507025025 15 189 4.8 19.3 0.00 0.91 0.91 96 1005.4
20260507024503 15 194 6.4 19.3 0.00 0.91 0.91 96 1005.4
20260507024003 15 203 4.8 19.3 0.00 0.91 0.91 96 1005.4
20260507023503 15 202 4.8 17.7 0.00 0.91 0.91 96 1005.0
20260507023003 15 201 6.4 17.7 0.00 0.91 0.91 96 1005.4
20260507022503 15 206 4.8 17.7 0.00 0.91 0.91 96 1005.0
20260507022003 15 200 4.8 17.7 0.00 0.91 0.91 96 1005.0
20260507021503 15 197 4.8 17.7 0.00 0.91 0.91 96 1005.0
20260507021003 15 207 4.8 19.3 0.00 0.91 0.91 96 1005.0
20260507020503 15 203 6.4 19.3 0.00 0.91 0.91 96 1005.4
20260507020004 15 195 4.8 17.7 0.00 0.91 0.91 96 1005.4
20260507015503 15 200 4.8 17.7 0.00 0.91 0.91 96 1005.4
20260507015003 15 205 4.8 14.5 0.00 0.91 0.91 96 1005.4
20260507014503 15 204 4.8 17.7 0.00 0.91 0.91 96 1005.4
20260507014003 15 193 4.8 17.7 0.00 0.91 0.91 96 1005.4
20260507013503 15 194 4.8 16.1 0.00 0.91 0.91 96 1005.7
20260507013003 15 195 6.4 19.3 0.00 0.91 0.91 96 1005.7
20260507012503 15 194 6.4 19.3 0.00 0.91 0.91 97 1005.7
20260507012003 15 199 6.4 19.3 0.00 0.91 0.91 97 1005.4
20260507011503 15 198 4.8 19.3 0.00 0.91 0.91 97 1005.7
20260507010503 15 198 6.4 19.3 0.00 0.91 0.91 97 1005.7
20260507010003 15 196 8.0 22.5 0.00 0.91 0.91 97 1005.7
20260507005503 15 201 6.4 22.5 0.00 0.91 0.91 97 1005.7
20260507005003 15 204 6.4 20.9 0.00 0.91 0.91 98 1005.4
20260507004504 15 206 6.4 17.7 0.00 0.91 0.91 98 1005.4